Location: Newark
(45.2500°N, 7.5833°E)
Time: 03:30:42
(UTC+00:00)

Tiros 1 despin weight - Pass Details

Date: 02 February 2020
Orbit: 594 x 642 km, 48.2° (Epoch: 18 February)

Event Time Altitude Azimuth Distance (km) Brightness Sun altitude
Rises 06:46:14 0° 204° (SSW) 2,819 ? -1.4°
Reaches altitude 10° 06:48:56 10° 188° (S) 1,925 ? -1.0°
Maximum altitude 06:52:15 21° 139° (SE) 1,357 ? -0.4°
Drops below altitude 10° 06:55:36 10° 90° (E) 1,950 ? 0.1°
Sets 06:58:21 0° 74° (ENE) 2,866 ? 0.6°
